Location: Banff
(51.1667°N, 115.5667°W)
Time: 13:26:05
(UTC+00:00)

Tiros 1 - Pass Details

Date: 02 August 2021
Orbit: 630 x 663 km, 48.4° (Epoch: 27 September)

Event Time Altitude Azimuth Distance (km) Brightness Sun altitude
Rises 05:35:15 0° 275° (W) 2,973 11.1 -15.2°
Reaches altitude 10° 05:37:40 10° 271° (W) 2,055 10.2 -15.4°
Maximum altitude 05:42:13 49° 197° (SSW) 831 7.4 -15.8°
Enters shadow 05:44:21 28° 137° (SE) 1,203 8.0 -16.0°
